• In Uzbekistan
  • List of Countries
  • For 7 days
  • Water Temperature
  • Satellite Maps
  • Weather Map
  • Weather Widgets
  • user-avatar
    Login

    Hourly Weather Duabo

    Today, 12 December, Tuesday

    Time Temperature Precipitation Wind Pressure Humidity
    00:00 +25°C° 0 mm 1 mps 740 mmHg 92%
    01:00 +25°C° 0 mm 1 mps 739 mmHg 94%
    02:00 +23°C° 0 mm 0 mps 739 mmHg 95%
    03:00 +22°C° 0 mm 0 mps 739 mmHg 96%
    04:00 +22°C° 0 mm 0 mps 739 mmHg 96%
    05:00 +22°C° 0 mm 0 mps 739 mmHg 97%
    06:00 +24°C° 0.1 mm 0 mps 740 mmHg 90%
    07:00 +25°C° 0.1 mm 0 mps 740 mmHg 83%
    08:00 +28°C° 0.1 mm 1 mps 741 mmHg 77%
    09:00 +31°C° 0 mm 1 mps 741 mmHg 68%
    10:00 +31°C° 0 mm 0 mps 741 mmHg 59%
    11:00 +33°C° 0 mm 0 mps 740 mmHg 50%
    12:00 +33°C° 0.8 mm 0 mps 740 mmHg 51%
    13:00 +34°C° 0.8 mm 1 mps 739 mmHg 51%
    14:00 +34°C° 0.8 mm 1 mps 739 mmHg 52%
    15:00 +32°C° 1 mm 1 mps 739 mmHg 60%
    16:00 +30°C° 1 mm 1 mps 739 mmHg 67%
    17:00 +29°C° 1 mm 2 mps 739 mmHg 74%
    18:00 +28°C° 0.4 mm 2 mps 739 mmHg 78%
    19:00 +27°C° 0.4 mm 2 mps 740 mmHg 82%
    20:00 +26°C° 0.4 mm 2 mps 740 mmHg 87%
    21:00 +26°C° 0 mm 1 mps 740 mmHg 89%
    22:00 +26°C° 0 mm 1 mps 741 mmHg 91%
    23:00 +25°C° 0 mm 1 mps 741 mmHg 93%

    Tomorrow, 13 December, Wednesday

    Time Temperature Precipitation Wind Pressure Humidity
    00:00 +25°C° 0 mm 1 mps 740 mmHg 94%
    01:00 +25°C° 0 mm 1 mps 740 mmHg 95%
    02:00 +22°C° 0 mm 0 mps 739 mmHg 96%
    03:00 +22°C° 0 mm 0 mps 739 mmHg 97%
    04:00 +22°C° 0 mm 0 mps 739 mmHg 97%
    05:00 +22°C° 0 mm 0 mps 739 mmHg 98%
    06:00 +23°C° 0 mm 0 mps 740 mmHg 92%
    07:00 +26°C° 0 mm 1 mps 740 mmHg 87%
    08:00 +27°C° 0 mm 1 mps 741 mmHg 82%
    09:00 +29°C° 0 mm 1 mps 741 mmHg 74%
    10:00 +31°C° 0 mm 1 mps 740 mmHg 67%
    11:00 +33°C° 0 mm 1 mps 740 mmHg 59%
    12:00 +33°C° 0 mm 1 mps 740 mmHg 57%
    13:00 +34°C° 0 mm 1 mps 739 mmHg 54%
    14:00 +34°C° 0 mm 1 mps 738 mmHg 52%
    15:00 +33°C° 0.1 mm 1 mps 738 mmHg 58%
    16:00 +31°C° 0.1 mm 1 mps 738 mmHg 63%
    17:00 +30°C° 0.1 mm 2 mps 739 mmHg 69%
    18:00 +29°C° 0 mm 2 mps 739 mmHg 75%
    19:00 +28°C° 0 mm 2 mps 740 mmHg 80%
    20:00 +27°C° 0 mm 2 mps 741 mmHg 86%
    21:00 +26°C° 0 mm 2 mps 741 mmHg 88%
    22:00 +26°C° 0 mm 1 mps 741 mmHg 89%
    23:00 +26°C° 0 mm 1 mps 741 mmHg 91%

    Day after tomorrow, 14 December, Thursday

    Time Temperature Precipitation Wind Pressure Humidity
    00:00 +25°C° 0 mm 1 mps 740 mmHg 92%
    01:00 +25°C° 0 mm 1 mps 740 mmHg 93%
    02:00 +25°C° 0 mm 1 mps 739 mmHg 95%
    03:00 +25°C° 0 mm 1 mps 740 mmHg 94%
    04:00 +23°C° 0 mm 0 mps 740 mmHg 94%
    05:00 +23°C° 0 mm 0 mps 740 mmHg 94%
    06:00 +24°C° 0 mm 0 mps 740 mmHg 90%
    07:00 +25°C° 0 mm 0 mps 741 mmHg 85%
    08:00 +27°C° 0 mm 1 mps 741 mmHg 81%
    09:00 +29°C° 0 mm 1 mps 741 mmHg 76%
    10:00 +30°C° 0 mm 1 mps 741 mmHg 70%
    11:00 +31°C° 0 mm 1 mps 741 mmHg 65%
    12:00 +31°C° 0.1 mm 1 mps 740 mmHg 63%
    13:00 +32°C° 0.1 mm 1 mps 739 mmHg 61%
    14:00 +32°C° 0.1 mm 1 mps 739 mmHg 59%
    15:00 +31°C° 0.4 mm 1 mps 739 mmHg 65%
    16:00 +30°C° 0.4 mm 1 mps 739 mmHg 71%
    17:00 +29°C° 0.4 mm 1 mps 739 mmHg 77%
    18:00 +28°C° 0.2 mm 1 mps 739 mmHg 81%
    19:00 +27°C° 0.2 mm 1 mps 740 mmHg 85%
    20:00 +26°C° 0.2 mm 1 mps 741 mmHg 90%
    21:00 +26°C° 0 mm 1 mps 741 mmHg 91%
    22:00 +25°C° 0 mm 1 mps 741 mmHg 92%
    23:00 +25°C° 0 mm 1 mps 741 mmHg 94%

    15 December, Friday

    Time Temperature Precipitation Wind Pressure Humidity
    00:00 +25°C° 0 mm 1 mps 740 mmHg 95%
    01:00 +24°C° 0 mm 1 mps 740 mmHg 95%
    02:00 +24°C° 0 mm 1 mps 740 mmHg 96%
    03:00 +24°C° 0 mm 1 mps 740 mmHg 96%
    04:00 +22°C° 0 mm 0 mps 740 mmHg 96%
    05:00 +22°C° 0 mm 0 mps 740 mmHg 96%
    06:00 +25°C° 0 mm 1 mps 741 mmHg 90%
    07:00 +27°C° 0 mm 1 mps 741 mmHg 83%
    08:00 +28°C° 0 mm 1 mps 742 mmHg 76%
    09:00 +30°C° 0.2 mm 1 mps 742 mmHg 70%
    10:00 +31°C° 0.2 mm 1 mps 741 mmHg 64%
    11:00 +33°C° 0.2 mm 1 mps 741 mmHg 59%
    12:00 +33°C° 0.8 mm 1 mps 740 mmHg 59%
    13:00 +33°C° 0.8 mm 1 mps 739 mmHg 60%
    14:00 +33°C° 0.8 mm 1 mps 739 mmHg 60%
    15:00 +31°C° 1.5 mm 1 mps 739 mmHg 68%
    16:00 +29°C° 1.5 mm 1 mps 739 mmHg 77%
    17:00 +28°C° 1.5 mm 1 mps 739 mmHg 85%
    18:00 +27°C° 0.9 mm 1 mps 740 mmHg 88%
    19:00 +26°C° 0.9 mm 1 mps 741 mmHg 90%
    20:00 +25°C° 0.9 mm 1 mps 741 mmHg 92%
    21:00 +25°C° 0.1 mm 1 mps 741 mmHg 93%
    22:00 +25°C° 0.1 mm 1 mps 741 mmHg 93%
    23:00 +25°C° 0.1 mm 1 mps 741 mmHg 94%

    16 December, Saturday

    Time Temperature Precipitation Wind Pressure Humidity
    00:00 +25°C° 0 mm 1 mps 741 mmHg 94%
    01:00 +24°C° 0 mm 1 mps 740 mmHg 95%
    02:00 +24°C° 0 mm 1 mps 740 mmHg 96%
    03:00 +24°C° 0 mm 1 mps 740 mmHg 96%
    04:00 +22°C° 0 mm 0 mps 740 mmHg 97%
    05:00 +22°C° 0 mm 0 mps 740 mmHg 97%
    06:00 +25°C° 0.2 mm 1 mps 741 mmHg 91%
    07:00 +26°C° 0.2 mm 1 mps 742 mmHg 86%
    08:00 +28°C° 0.2 mm 1 mps 742 mmHg 80%
    09:00 +29°C° 1.5 mm 1 mps 742 mmHg 74%
    10:00 +30°C° 1.5 mm 1 mps 741 mmHg 68%
    11:00 +32°C° 1.5 mm 1 mps 741 mmHg 62%
    12:00 +32°C° 1.1 mm 1 mps 740 mmHg 61%
    13:00 +32°C° 1.1 mm 1 mps 740 mmHg 60%
    14:00 +32°C° 1.1 mm 1 mps 739 mmHg 59%
    15:00 +31°C° 0.9 mm 1 mps 739 mmHg 66%
    16:00 +29°C° 0.9 mm 1 mps 740 mmHg 72%
    17:00 +28°C° 0.9 mm 1 mps 740 mmHg 79%
    18:00 +27°C° 0.5 mm 1 mps 740 mmHg 82%
    19:00 +26°C° 0.5 mm 1 mps 741 mmHg 85%
    20:00 +26°C° 0.5 mm 1 mps 742 mmHg 89%
    21:00 +25°C° 0.2 mm 1 mps 741 mmHg 90%
    22:00 +25°C° 0.2 mm 1 mps 741 mmHg 91%
    23:00 +25°C° 0.2 mm 1 mps 741 mmHg 93%

    17 December, Sunday

    Time Temperature Precipitation Wind Pressure Humidity
    00:00 +25°C° 0 mm 1 mps 741 mmHg 93%
    01:00 +25°C° 0 mm 1 mps 740 mmHg 94%
    02:00 +25°C° 0 mm 1 mps 740 mmHg 95%
    03:00 +25°C° 0 mm 1 mps 740 mmHg 95%
    04:00 +24°C° 0 mm 1 mps 740 mmHg 95%
    05:00 +24°C° 0 mm 1 mps 740 mmHg 95%
    06:00 +26°C° 0 mm 1 mps 741 mmHg 90%
    07:00 +27°C° 0 mm 1 mps 741 mmHg 85%
    08:00 +28°C° 0 mm 1 mps 741 mmHg 79%
    09:00 +30°C° 0 mm 1 mps 741 mmHg 70%
    10:00 +33°C° 0 mm 1 mps 741 mmHg 60%
    11:00 +35°C° 0 mm 1 mps 740 mmHg 50%
    12:00 +36°C° 0 mm 1 mps 740 mmHg 46%
    13:00 +35°C° 0 mm 0 mps 739 mmHg 43%
    14:00 +35°C° 0 mm 0 mps 738 mmHg 39%
    15:00 +33°C° 0.1 mm 0 mps 738 mmHg 46%
    16:00 +33°C° 0.1 mm 1 mps 739 mmHg 53%
    17:00 +31°C° 0.1 mm 1 mps 739 mmHg 61%
    18:00 +30°C° 0.5 mm 1 mps 739 mmHg 68%
    19:00 +28°C° 0.5 mm 2 mps 740 mmHg 76%
    20:00 +27°C° 0.5 mm 2 mps 740 mmHg 84%
    21:00 +27°C° 0.1 mm 2 mps 740 mmHg 87%
    22:00 +26°C° 0.1 mm 2 mps 740 mmHg 89%
    23:00 +26°C° 0.1 mm 2 mps 740 mmHg 92%
    Show more